Weather History for Kankakee, IL

Change the Weather History Date:

Saturday, January 19, 2013

  Actual Average Record
Temperature  
Mean Temperature 40 °F -  
Max Temperature 48 °F 31 °F 55 °F (2006)
Min Temperature 30 °F 12 °F -16 °F (1984)
Degree Days  
Heating Degree Days 25    
Moisture  
Dew Point 31 °F    
Average Humidity 71    
Maximum Humidity 81    
Minimum Humidity 53    
Precipitation  
Precipitation 0.00 in - - ()
Sea Level Pressure  
Sea Level Pressure 29.90 in    
Wind  
Wind Speed 20 mph (SW)    
Max Wind Speed 31 mph    
Max Gust Speed 50 mph    
Visibility 10 miles    
Events      
Averages and records for this station are not official NWS values.
T = Trace of Precipitation, MM = Missing Value Source: NWS Daily Summary

Daily Weather History Graph

Daily Weather History Graph

Search for Another Location

Airport:

Trip Planner

Search our weather history database for the weather conditions in past years. The results will help you decide how hot, cold, wet, or windy it might be!

Date:

Astronomy

Jan. 19, 2013 Rise Set
Actual Time 7:12 AM CST 4:52 PM CST
Civil Twilight 6:42 AM CST 5:22 PM CST
Nautical Twilight 6:08 AM CST 5:56 PM CST
Astronomical Twilight 5:35 AM CST 6:29 PM CST
Moon 11:19 AM CST (1/19) 12:45 AM CST (1/19)
Length of Visible Light 10h 40m
Length of Day
9h 40m
First Quarter, 57% of the Moon is Illuminated
Jan 19
First Quarter
Jan 26
Full
Feb 3
Last Quarter
Feb 10
New
Feb 17
First Quarter

Hourly Weather History & Observations

Time (CST) Temp. Windchill Dew Point Humidity Pressure Visibility Wind Dir Wind Speed Gust Speed Precip Events Conditions
12:15 AM 36.1 °F 24.2 °F 28.8 °F 75% 29.99 in 10.0 mi SSW 25.3 mph 33.4 mph N/A   Clear
12:35 AM 36.0 °F 24.2 °F 28.9 °F 76% 29.99 in 10.0 mi SSW 24.2 mph 34.5 mph N/A   Clear
12:55 AM 35.8 °F 24.2 °F 28.9 °F 76% 29.98 in 10.0 mi SSW 23.0 mph 33.4 mph N/A   Clear
1:15 AM 35.8 °F 24.8 °F 29.1 °F 77% 29.99 in 10.0 mi SSW 20.7 mph 32.2 mph N/A   Clear
1:35 AM 35.4 °F 23.7 °F 29.1 °F 78% 30.00 in 10.0 mi SSW 23.0 mph 29.9 mph N/A   Clear
1:55 AM 35.6 °F 24.2 °F 29.1 °F 77% 30.00 in 10.0 mi SSW 21.9 mph 28.8 mph N/A   Clear
2:15 AM 35.6 °F 24.5 °F 29.1 °F 77% 30.00 in 10.0 mi SSW 20.7 mph 27.6 mph N/A   Clear
2:35 AM 35.6 °F 25.2 °F 29.1 °F 77% 30.00 in 10.0 mi SSW 18.4 mph 25.3 mph N/A   Clear
2:55 AM 35.1 °F 24.5 °F 29.1 °F 79% 30.00 in 10.0 mi SSW 18.4 mph 24.2 mph N/A   Clear
3:15 AM 34.7 °F 23.7 °F 29.3 °F 81% 29.99 in 10.0 mi SSW 19.6 mph 27.6 mph N/A   Clear
3:35 AM 34.9 °F 23.9 °F 29.3 °F 80% 29.99 in 10.0 mi SSW 19.6 mph 26.5 mph N/A   Clear
3:55 AM 34.9 °F 23.9 °F 29.3 °F 80% 29.98 in 10.0 mi SSW 19.6 mph 26.5 mph N/A   Clear
4:15 AM 34.9 °F 24.2 °F 29.1 °F 79% 29.98 in 10.0 mi SSW 18.4 mph 26.5 mph N/A   Clear
4:35 AM 34.7 °F 23.4 °F 29.1 °F 80% 29.97 in 10.0 mi SSW 20.7 mph 28.8 mph N/A   Clear
4:55 AM 34.7 °F 24.0 °F 29.1 °F 80% 29.97 in 10.0 mi SSW 18.4 mph 25.3 mph N/A   Clear
5:15 AM 34.7 °F 24.0 °F 29.1 °F 80% 29.97 in 10.0 mi SSW 18.4 mph 24.2 mph N/A   Clear
5:35 AM 34.7 °F 24.0 °F 29.1 °F 80% 29.97 in 10.0 mi SSW 18.4 mph 25.3 mph N/A   Clear
5:55 AM 34.7 °F 23.7 °F 29.1 °F 80% 29.97 in 10.0 mi SSW 19.6 mph 25.3 mph N/A   Clear
6:38 AM 35.6 °F 25.9 °F 28.4 °F 75% 29.95 in 10.0 mi SSW 16.1 mph 24.2 mph N/A   Clear
6:55 AM 34.9 °F 24.9 °F 28.9 °F 79% 29.95 in 10.0 mi SSW 16.1 mph 20.7 mph N/A   Clear
7:15 AM 34.7 °F 25.1 °F 28.9 °F 79% 29.95 in 10.0 mi SSW 15.0 mph 24.2 mph N/A   Clear
7:55 AM 35.6 °F 25.2 °F 29.1 °F 77% 29.94 in 10.0 mi SSW 18.4 mph 24.2 mph N/A   Clear
8:15 AM 36.5 °F 26.7 °F 29.3 °F 75% 29.94 in 10.0 mi SSW 17.3 mph 25.3 mph N/A   Clear
8:35 AM 37.9 °F 27.9 °F 29.7 °F 72% 29.94 in 10.0 mi SSW 19.6 mph 27.6 mph N/A   Clear
9:55 AM 41.9 °F 32.6 °F 30.6 °F 64% 29.94 in 10.0 mi SSW 21.9 mph 34.5 mph N/A   Clear
9:58 AM 42.8 °F 33.8 °F 30.2 °F 61% 29.94 in 10.0 mi SSW 21.9 mph 27.6 mph N/A   Clear
10:15 AM 42.6 °F 33.1 °F 30.9 °F 63% 29.93 in 10.0 mi SSW 24.2 mph 29.9 mph N/A   Clear
10:35 AM 44.1 °F 35.7 °F 31.5 °F 61% 29.92 in 10.0 mi SSW 20.7 mph 27.6 mph N/A   Clear
11:15 AM 43.7 °F 35.4 °F 32.0 °F 63% 29.89 in 10.0 mi SSW 19.6 mph 25.3 mph N/A   Clear
11:35 AM 47.3 °F - 32.7 °F 57% 29.88 in 10.0 mi SW 23.0 mph 28.8 mph N/A   Clear
11:55 AM 48.6 °F - 32.5 °F 54% 29.86 in 10.0 mi SW 23.0 mph 32.2 mph N/A   Clear
12:15 PM 48.9 °F - 32.5 °F 53% 29.84 in 10.0 mi SW 23.0 mph 27.6 mph N/A   Clear
12:35 PM 48.4 °F - 32.7 °F 55% 29.84 in 10.0 mi SW 18.4 mph 26.5 mph N/A   Clear
12:55 PM 48.2 °F - 32.7 °F 55% 29.84 in 10.0 mi SW 21.9 mph 27.6 mph N/A   Clear
1:15 PM 47.7 °F - 33.6 °F 58% 29.83 in 10.0 mi SW 20.7 mph 25.3 mph N/A   Clear
1:35 PM 47.3 °F - 33.8 °F 59% 29.82 in 10.0 mi SSW 17.3 mph - N/A   Clear
1:55 PM 47.3 °F - 34.5 °F 61% 29.82 in 10.0 mi SW 18.4 mph - N/A   Clear
2:15 PM 46.9 °F - 34.7 °F 62% 29.81 in 10.0 mi SW 15.0 mph 20.7 mph N/A   Clear
2:35 PM 46.8 °F - 34.9 °F 63% 29.80 in 10.0 mi SSW 15.0 mph 20.7 mph N/A   Clear
2:55 PM 47.7 °F - 35.2 °F 62% 29.81 in 10.0 mi SW 15.0 mph - N/A   Clear
3:15 PM 48.4 °F - 35.6 °F 61% 29.80 in 10.0 mi SW 16.1 mph - N/A   Clear
3:35 PM 48.4 °F - 35.8 °F 62% 29.80 in 10.0 mi SW 15.0 mph 20.7 mph N/A   Clear
3:55 PM 47.7 °F - 36.3 °F 65% 29.79 in 10.0 mi SW 15.0 mph - N/A   Clear
4:15 PM 47.5 °F - 36.5 °F 66% 29.81 in 10.0 mi SW 12.7 mph - N/A   Clear
4:35 PM 45.9 °F 40.0 °F 36.1 °F 69% 29.81 in 10.0 mi SW 12.7 mph - N/A   Clear
4:55 PM 44.8 °F 39.0 °F 35.2 °F 69% 29.81 in 10.0 mi SW 11.5 mph 17.3 mph N/A   Clear
5:15 PM 43.3 °F 37.7 °F 34.7 °F 72% 29.82 in 10.0 mi SW 10.4 mph - N/A   Clear
5:35 PM 41.5 °F 35.0 °F 34.3 °F 76% 29.83 in 10.0 mi SW 11.5 mph - N/A   Clear
5:55 PM 41.0 °F 34.3 °F 34.3 °F 77% 29.84 in 10.0 mi WSW 11.5 mph - N/A   Clear
6:15 PM 40.5 °F 33.6 °F 34.5 °F 79% 29.84 in 10.0 mi WSW 11.5 mph - N/A   Clear
6:35 PM 40.1 °F 32.4 °F 34.2 °F 79% 29.84 in 10.0 mi WSW 13.8 mph 18.4 mph N/A   Clear
6:55 PM 41.0 °F 33.5 °F 34.3 °F 77% 29.83 in 10.0 mi SW 13.8 mph - N/A   Clear
7:15 PM 40.1 °F 32.0 °F 33.8 °F 78% 29.84 in 10.0 mi SW 15.0 mph - N/A   Clear
7:35 PM 38.8 °F 30.8 °F 33.3 °F 80% 29.84 in 10.0 mi WSW 13.8 mph 19.6 mph N/A   Clear
7:55 PM 39.7 °F 31.9 °F 32.9 °F 77% 29.85 in 10.0 mi WSW 13.8 mph - N/A   Clear
8:15 PM 39.4 °F 31.1 °F 32.9 °F 78% 29.85 in 10.0 mi WSW 15.0 mph 20.7 mph N/A   Clear
8:35 PM 39.2 °F 30.5 °F 32.2 °F 76% 29.85 in 10.0 mi West 16.1 mph - N/A   Clear
8:55 PM 40.1 °F 30.7 °F 32.0 °F 73% 29.85 in 10.0 mi West 19.6 mph 28.8 mph N/A   Clear
9:15 PM 40.1 °F 30.7 °F 32.0 °F 73% 29.86 in 10.0 mi West 19.6 mph 27.6 mph N/A   Clear
9:35 PM 38.7 °F 29.5 °F 31.6 °F 76% 29.87 in 10.0 mi West 17.3 mph 26.5 mph N/A   Clear
9:55 PM 37.9 °F 28.9 °F 31.6 °F 78% 29.88 in 10.0 mi West 16.1 mph 23.0 mph N/A   Clear
10:15 PM 38.5 °F 27.3 °F 31.1 °F 75% 29.89 in 10.0 mi West 25.3 mph 31.1 mph N/A   Clear
10:35 PM 37.8 °F 27.1 °F 29.7 °F 73% 29.90 in 10.0 mi West 21.9 mph 28.8 mph N/A   Clear
10:55 PM 37.6 °F 25.0 °F 26.6 °F 65% 29.90 in 10.0 mi West 31.1 mph 36.8 mph N/A   Clear
11:15 PM 36.1 °F 23.3 °F 25.0 °F 64% 29.92 in 10.0 mi West 29.9 mph 39.1 mph N/A   Clear
11:35 PM 32.7 °F 18.6 °F 17.6 °F 54% 29.94 in 10.0 mi West 29.9 mph 49.5 mph N/A   Clear
11:55 PM 30.7 °F 16.4 °F 15.6 °F 54% 29.96 in 10.0 mi West 27.6 mph 42.6 mph N/A   Clear